Regional Weather Roundup
Issued by NWS

Home | Current Version | Previous Version | Text Only | Print | Product List | Glossary Off
Versions: 1 2 3 4 5 6 7 8 9 10 11 12 13 14 15 16 17 18 19 20 21 22 23 24 25 26 27 28 29 30 31 32 33 34 35 36 37 38 39 40 41 42 43 44 45 46 47 48 49 50

000
ASUS43 KOAX 200102
RWRNE

WEATHER ROUNDUP FOR NEBRASKA
NATIONAL WEATHER SERVICE OMAHA NE
800 PM CDT FRI SEP 19 2014

NOTES: SATELLITE DATA IS BEING USED TO AUGMENT CLOUD COVER ABOVE
       12000 FEET.
       "FAIR" INDICATES FEW OR NO CLOUDS BELOW 12,000 FEET WITH NO
       SIGNIFICANT WEATHER AND/OR OBSTRUCTIONS TO VISIBILITY.

  * THESE STATIONS DO NOT REPORT WEATHER SUCH AS RAIN...SNOW OR FOG.

NEZ001>004-019>022-054>056-200200-
NEBRASKA PANHANDLE

CITY           SKY/WX    TMP DP  RH WIND       PRES   REMARKS
SCOTTSBLUFF    CLEAR     78  49  35 E5        29.88R
ALLIANCE       CLEAR     74  53  48 NE9       29.88R
CHADRON        CLEAR     78  50  37 NW5       29.84R
KIMBALL        TSTM      71  55  58 S7        29.96R
$$

NEZ057>060-069>072-079>082-200200-
SOUTHWEST NEBRASKA

CITY           SKY/WX    TMP DP  RH WIND       PRES   REMARKS
NORTH PLATTE   CLEAR     79  59  50 S8        29.79R
IMPERIAL       CLEAR     80  54  40 S7        29.83S
LEXINGTON      CLEAR     76  63  63 S9        29.81S
MCCOOK         CLEAR     83  60  45 S15       29.82S
OGALLALA       PTCLDY    73  59  63 CALM      29.84R
$$

NEZ005>010-023>029-035>040-094-200200-
NORTH CENTRAL NEBRASKA

CITY           SKY/WX    TMP DP  RH WIND       PRES   REMARKS
VALENTINE      PTCLDY    78  55  44 NE6       29.81R
AINSWORTH      MOCLDY    76  62  61 N3        29.81S
BROKEN BOW     CLEAR     82  58  43 S7        29.78R
O`NEILL        PTCLDY    79  65  62 CALM      29.77R
ORD            CLEAR     80  62  54 S10       29.74S
THEDFORD       PTCLDY    79  58  49 CALM      29.83R
$$

NEZ041-046>049-061>064-073>077-083>087-200200-
SOUTH CENTRAL NEBRASKA

CITY           SKY/WX    TMP DP  RH WIND       PRES   REMARKS
GRAND ISLAND   CLEAR     78  64  61 S10       29.80S
AURORA         CLEAR     79  61  53 S8        29.81R
HASTINGS       CLEAR     80  59  48 S6        29.82R
HEBRON         CLEAR     78  63  60 S5        29.83S
HOLDREGE       CLEAR     79  58  47 S10       29.83S
KEARNEY *      CLEAR     77  61  57 S10       29.83R
YORK           CLEAR     75  66  73 S7        29.81S
$$

NEZ011>018-030>034-042>045-200200-
NORTHEAST NEBRASKA

CITY           SKY/WX    TMP DP  RH WIND       PRES   REMARKS
NORFOLK        CLEAR     80  65  59 S9        29.74F
ALBION         CLEAR     76  63  63 S7        29.76F
BLAIR          CLEAR     80  66  63 S9        29.80R
COLUMBUS *     CLEAR     81  64  57 S10G16    29.78S
FREMONT        CLEAR     82  65  57 S9        29.78S
TEKAMAH        CLEAR     78  65  63 SE9       29.76S
WAYNE          CLEAR     76  66  71 S6        29.75S
$$

NEZ050>053-065>068-078-088>093-200200-
SOUTHEAST NEBRASKA

CITY           SKY/WX    TMP DP  RH WIND       PRES   REMARKS
LINCOLN        CLEAR     79  66  64 S12       29.81R
OMAHA EPPLEY   PTCLDY    80  68  66 S17       29.79S
BEATRICE       CLEAR     80  67  64 S8        29.83S
FALLS CITY     CLEAR     75  69  81 S10       29.87R
NEBRASKA CITY    N/A     76  65  68 S13       29.85R
PLATTSMOUTH    CLEAR     77  68  73 SE10      29.83R
$$

NEZ044-045-051>053-067-200200-
OMAHA AREA

CITY           SKY/WX    TMP DP  RH WIND       PRES   REMARKS
OMAHA EPPLEY   PTCLDY    80  68  66 S17       29.79S
BLAIR          CLEAR     80  66  63 S9        29.80R
FREMONT        CLEAR     82  65  57 S9        29.78S
MILLARD        CLEAR     80  69  70 SE6       29.79S
OFFUTT AFB     CLEAR     78  74  88 SE10      29.81R
PLATTSMOUTH    CLEAR     77  68  73 SE10      29.83R
WAHOO          FAIR      78  64  63 S8        29.79S
$$



USA.gov is the U.S. government's official web portal to all federal, state and local government web resources and services.